Погода в Трубчевске

Погода в Трубчевске : погода сейчас, прогноз погоды и архив. Всё, что Вы хотите узнать о погоде в Трубчевске!

Хотите узнать прогноз погоды в Трубчевске? Тогда Вам сюда: Погода в Трубчевске

Поиск расширенной информации на нашем сайте:

Другие новости

Новости СМИ2

Главная страница сайта

Новости сайта

03.07.2017

Напоминаем, что на нашем специализированном сайте Метеоцентр.Азия вы можете получить высокодетализированные автоматические прогнозы погоды по пунктам России, СНГ и мира в авиационном формате (включающие направление и скорость ветра, видимость, явления погоды, количество и форму облачности, нижнюю и верхнюю границу облачности).


Погода в Трубчевске - сегодня

Время (UTC), дата Ветер
(°,м/с) 
Видим.   Явления Облачность Т
(°С)
Тd
(°С)
f(%) Тe
(°С)
Pmin
(гПа)
dP
(гПа)
Po
(мм)
O2
(г/м3)
Тmin Tmax R s Состояние
почвы
09 20.01.18 220 (ЮЗ) 5000 м  слаб. снег  10/10 270 м 
[Frnb|Ns]
-1.2 -1.9 95 -3  1007.7  739  299           
12 20.01.18 220 (ЮЗ) 6000 м  дымка{снег}  10/10 300 м 
[St]
-1.4 -2.5 92 -4  1008.2  0.5  739  300           
15 20.01.18 220 (ЮЗ) 8000 м  дымка  10/10 330 м 
[St]
-1.9 -3.4 89 -4  1009.2  740  301         
18 20.01.18 220 (ЮЗ) 9000 м  дымка  10/10 360 м 
[St]
-2.3 -4.2 87 -4  1009.8  0.5  741  301    -1     
21 20.01.18 220 (ЮЗ) 9000 м  дымка  8/8 500 м кучево-дожд. 
[Cb cap]
-3 -5 86 -4  1010.2  0.3  741  302           
00 21.01.18 190 (Ю) 8000 м  дымка  8/8 500 м кучево-дожд. 
[Cb cap]
-3.4 -5.2 87 -5  1010  -0.2  741  303           
03 21.01.18 230 (ЮЗ) 9000 м  дымка  8/8 500 м кучево-дожд. 
[Cb cap]
-3.9 -5.8 87 -3  1009.8  -0.2  740  303  -4.1         
06 21.01.18 тихо ()   8000 м  дымка  10/10 480 м кучево-дожд. 
[Cb cap]
-4.1 -5.6 89 -4  1010  0.2  741  304  -4.3      25  равномерный
сухой снег
100% 
09 21.01.18 230 (ЮЗ) 7000 м  дымка  8/8 500 м кучево-дожд. 
[Cb cap]
-4.9 -6.2 91 -4  1010.3  0.2  741  305           
12 21.01.18 230 (ЮЗ) 13000 м    10/10 500 м кучево-дожд. 
[Cb cap]
-3.7 -7 78 -3  1010.8  0.6  741  303           
15 21.01.18 250 (З) 7000 м  дымка  10/10 500 м кучево-дожд. 
[Cb cap]
-3.8 -5.3 89 -5  1012.5  1.6  742  304           
18 21.01.18 290 (З) 7000 м  дымка{ливн. осадки}  3/3 300 м кучево-дожд. 
[Cb cap]
-5.1 -6.5 90 -7  1013.9  1.3  743  306    -3.5  0.2     
21 21.01.18 290 (З) 11000 м    10/10 630 м 
[Sc]
-4.7 -7.1 83 -7  1015.5  1.6  745  306           
00 22.01.18 250 (З) 12000 м    3/0 верхняя 
[Ci sp]
-7.8 -10.5 81 -9  1017.6  1.8  746  310           
03 22.01.18 280 (З) 8000 м  дымка  10/10 540 м кучево-дожд. 
[Cb cap]
-6.8 -8.4 88 -8  1017.7  0.1  746  309  -8.5    0.2     
06 22.01.18 340 (С) 7000 м  дымка  10/0 средняя 
[Ac As]
-8.7 -9.8 92 -8  1019.1  1.3  747  312  -9.3      25  равномерный
сухой снег
100% 
09 22.01.18 020 (С) 7000 м  дымка  10/0 средняя 
[Ac As]
-8.5 -9.6 92 -8  1020.6  1.5  748  312           
12 22.01.18 200 (Ю) 8000 м  дымка  8/0 верхняя 
[Ci sp]
-8.5 -10 89 -8  1021.1  0.5  749  312           
15 22.01.18 тихо ()   8000 м  дымка  3/0 верхняя 
[Ci fib]
-12.2 -13.5 90 -12  1022.5  749  317           
18 22.01.18 тихо ()   9000 м  дымка  ясно 
-15.1 -16.4 90 -15  1023.4  0.5  750  321    -6.8       
21 22.01.18 010 (С) 11000 м    ясно 
-19.9 -21.8 85 -20  1024.4  0.6  750  328           
00 23.01.18 тихо ()   9000 м  дымка  4/0 средняя 
[Ac trans]
-15.8 -17.7 85 -16  1024.8  0.8  751  323           
03 23.01.18 040 (СВ) 9000 м  дымка  8/0 средняя 
[Ac trans]
-12.8 -14.1 90 -13  1025.1  0.5  751  319  -20.3         
06 23.01.18 050 (СВ) 8000 м  дымка  10/0 средняя 
[Ac As]
-11.6 -12.9 90 -15  1026.1  1.2  752  318  -20.3      25  равномерный
сухой снег
100% 
09 23.01.18 050 (СВ) 7000 м  дымка  10/0 средняя 
[Ac As]
-9.8 -11 91 -12  1027  1.1  753  316           
Время (UTC), дата Ветер
(°,м/с) 
Видим.   Явления Облачность Т
(°С)
Тd
(°С)
f(%) Тe
(°С)
Pmin
(гПа)
dP
(гПа)
Po
(мм)
O2
(г/м3)
Тmin Tmax R s Состояние
почвы

Для получения пояснительной информации подведите курсор к названию столбца.

ПОГОДА в Трубчевске - архив

Всё, что Вы хотите узнать о погоде в Трубчевске - удобно и подробно!

Выберите нужную дату (начиная с 1 января 2015* года) и нажмите кнопку "Найти".
Будут отображены архивные сводки погоды по пункту Трубчевск, начиная с указанной даты.


Отображать данные в формате CSV (для использования в таблицах Excel)


Внимание! Наш архив погоды предназначен исключительно для личного некоммерческого использования в познавательных целях. Если Вам необходимы официальные справки о состоянии погоды (для производственных, юридических, коммерческих и т.п. целей), обращайтесь в органы Росгидромета.

*Примечание: данная дата относится к архиву по метеостанциям СССР (Россия, СНГ, Балтия).
Архив по метеостанциям Зарубежной Европы и Азии (кроме Китая) хранится 10 дней, по другим регионам земного шара (Китай, Африка, Америка, Австралия, Океания) - 1 день.

Трубчевск - район местоположения метеостанции


Название, широта, долгота, высота метеостанции:
Трубчевск 52.6°ш. 33.8°д. 178 м над ур. моря [Российская Федерация]

Дополнительная информация

В oтличие oт бoльшинства пoгoдных сайтoв мы публикуем пoдрoбную метеoинфoрмацию в детальнoм прoфессиoнальнoм фoрмате.

Характеристики температуры и влажнoсти вoздуха измеряются на высoте 2 м в тени вдали oт зданий и деревьев.
Скoрoсть ветра измеряется на высoте 10 м (на урoвне рoста челoвека скoрoсть ветра ниже в 1.5-2 раза). Если метеoстанция нахoдится в гoрoде или в лесу, тo скoрoсть ветра занижена на 2-4 м/с пo сравнению с oткрытым местoм. Скoрoсть ветра над акватoриями крупных рек и oзёр, а также на вершинах хoлмoв на 2-5 м/с выше, чем в oбычных услoвиях.
Атмoсфернoе давление в разных тoчках местнoсти мoжет значительнo oтличаться oт давления на метеoстанции, в зависимoсти oт услoвий рельефа (при пoдъёме на 10 м давление пoнижается примернo на 1 мм рт.ст.).